Location: Wawayanda State Park
(41.1833°N, 74.4333°W)
Time: 17:46:56
(UTC-04:00)

Landsat 7 - Visible Passes

Search period start: 23 April 2017 00:00
Search period end: 03 May 2017 00:00
Orbit: 701 x 703 km, 98.2° (Epoch: 22 April)

Date Brightness Start Highest point End Pass type
(mag) Time Alt. Az. Time Alt. Az. Time Alt. Az.
23 Apr 4.4 22:11:17 42° ENE 22:11:17 42° ENE 22:15:32 10° N visible
23 Apr 6.1 23:50:09 18° WNW 23:50:09 18° WNW 23:52:26 10° NW visible
24 Apr 5.8 21:15:35 13° ENE 21:16:35 13° ENE 21:18:50 10° NNE visible
24 Apr 4.3 22:54:27 59° NW 22:54:27 59° NW 22:58:28 10° NNW visible
25 Apr 4.7 21:58:46 32° ENE 21:58:54 32° ENE 22:03:08 10° N visible
25 Apr 5.7 23:37:38 24° WNW 23:37:38 24° WNW 23:40:38 10° NW visible
26 Apr 6.0 21:04:12 10° ENE 21:04:33 10° ENE 21:04:53 10° NE visible
26 Apr 3.9 22:41:56 74° N 22:41:56 74° N 22:46:17 10° NNW visible
27 Apr 5.1 21:46:14 25° ENE 21:46:47 25° ENE 21:50:39 10° NNE visible
27 Apr 5.2 23:25:07 32° WNW 23:25:07 32° WNW 23:28:42 10° NNW visible
28 Apr 3.8 22:29:25 65° ENE 22:29:25 65° ENE 22:34:02 10° N visible
29 Apr 6.4 00:08:18 12° W 00:08:18 12° W 00:09:39 10° WNW visible
29 Apr 5.4 21:33:43 18° E 21:34:42 20° ENE 21:38:04 10° NNE visible
29 Apr 4.7 23:12:36 44° W 23:12:36 44° W 23:16:41 10° NNW visible
30 Apr 4.1 22:16:54 48° E 22:17:08 49° ENE 22:21:43 10° N visible
30 Apr 6.1 23:55:47 17° W 23:55:47 17° W 23:58:16 10° NW visible
01 May 5.7 21:21:12 14° E 21:22:37 15° ENE 21:25:19 10° NNE visible
01 May 4.1 23:00:05 61° W 23:00:05 61° W 23:04:34 10° NNW visible
02 May 4.5 22:04:23 35° E 22:04:59 37° ENE 22:09:21 10° N visible
02 May 5.7 23:43:16 23° W 23:43:16 23° W 23:46:34 10° NW visible
